When you browse on this site, cookies collect data to enhance your experience and personalize the content and advertising you see.
Visit our Privacy Policy to learn more. By continuing to use the site, you agree to this use of cookies and data.
  • en Belgique
  • Liste des pays
  • À 7 jours
  • Température de l'eau
  • Carte satellitaire
  • Carte météo
  • Widgets météo
  • user-avatar
    Se connecter

    Météo par heure à Zelenyy

    Ce jour, 17 Décembre, Lundi

    Heure Température Précipitation Vent Pression Humidité
    00:00 -12°C° 0 mm 1 m/s 746 mmHg 93%
    01:00 -12°C° 0 mm 1 m/s 746 mmHg 93%
    02:00 -14°C° 0 mm 2 m/s 746 mmHg 93%
    03:00 -14°C° 0 mm 2 m/s 746 mmHg 93%
    04:00 -13°C° 0 mm 1 m/s 746 mmHg 95%
    05:00 -13°C° 0 mm 1 m/s 746 mmHg 95%
    06:00 -13°C° 0 mm 1 m/s 746 mmHg 95%
    07:00 -15°C° 0 mm 2 m/s 746 mmHg 95%
    08:00 -14°C° 0 mm 2 m/s 746 mmHg 94%
    09:00 -13°C° 0 mm 2 m/s 747 mmHg 93%
    10:00 -13°C° 0 mm 2 m/s 747 mmHg 92%
    11:00 -12°C° 0 mm 2 m/s 747 mmHg 91%
    12:00 -9°C° 0 mm 2 m/s 747 mmHg 90%
    13:00 -8°C° 0 mm 2 m/s 747 mmHg 88%
    14:00 -9°C° 0 mm 2 m/s 747 mmHg 90%
    15:00 -9°C° 0 mm 2 m/s 747 mmHg 92%
    16:00 -10°C° 0 mm 2 m/s 747 mmHg 94%
    17:00 -10°C° 0 mm 2 m/s 747 mmHg 95%
    18:00 -10°C° 0 mm 2 m/s 747 mmHg 95%
    19:00 -10°C° 0 mm 2 m/s 747 mmHg 96%
    20:00 -10°C° 0 mm 2 m/s 747 mmHg 96%
    21:00 -10°C° 0 mm 2 m/s 747 mmHg 96%
    22:00 -10°C° 0 mm 2 m/s 747 mmHg 96%
    23:00 -9°C° 0 mm 2 m/s 747 mmHg 96%

    Demain, 18 Décembre, Mardi

    Heure Température Précipitation Vent Pression Humidité
    00:00 -9°C° 0 mm 2 m/s 747 mmHg 95%
    01:00 -9°C° 0 mm 2 m/s 747 mmHg 95%
    02:00 -9°C° 0 mm 3 m/s 746 mmHg 94%
    03:00 -9°C° 0 mm 3 m/s 746 mmHg 93%
    04:00 -8°C° 0 mm 3 m/s 746 mmHg 92%
    05:00 -8°C° 0 mm 3 m/s 746 mmHg 90%
    06:00 -9°C° 0 mm 4 m/s 746 mmHg 88%
    07:00 -8°C° 0 mm 4 m/s 746 mmHg 86%
    08:00 -8°C° 0 mm 4 m/s 746 mmHg 86%
    09:00 -9°C° 0 mm 4 m/s 746 mmHg 85%
    10:00 -10°C° 0 mm 5 m/s 745 mmHg 85%
    11:00 -10°C° 0 mm 5 m/s 745 mmHg 84%
    12:00 -10°C° 0 mm 5 m/s 745 mmHg 82%
    13:00 -10°C° 0 mm 5 m/s 745 mmHg 81%
    14:00 -11°C° 0 mm 5 m/s 745 mmHg 83%
    15:00 -12°C° 0 mm 5 m/s 745 mmHg 85%
    16:00 -12°C° 0 mm 4 m/s 745 mmHg 87%
    17:00 -12°C° 0 mm 4 m/s 745 mmHg 87%
    18:00 -12°C° 0 mm 4 m/s 745 mmHg 88%
    19:00 -14°C° 0 mm 4 m/s 746 mmHg 88%
    20:00 -14°C° 0 mm 4 m/s 746 mmHg 89%
    21:00 -14°C° 0 mm 4 m/s 746 mmHg 89%
    22:00 -15°C° 0 mm 4 m/s 746 mmHg 90%
    23:00 -15°C° 0 mm 4 m/s 746 mmHg 90%

    Après-demain, 19 Décembre, Mercredi

    Heure Température Précipitation Vent Pression Humidité
    00:00 -15°C° 0 mm 4 m/s 746 mmHg 91%
    01:00 -15°C° 0 mm 4 m/s 746 mmHg 91%
    02:00 -15°C° 0 mm 4 m/s 746 mmHg 91%
    03:00 -15°C° 0 mm 4 m/s 746 mmHg 91%
    04:00 -15°C° 0 mm 4 m/s 746 mmHg 91%
    05:00 -15°C° 0 mm 4 m/s 747 mmHg 90%
    06:00 -15°C° 0 mm 4 m/s 747 mmHg 90%
    07:00 -14°C° 0 mm 4 m/s 747 mmHg 89%
    08:00 -13°C° 0 mm 3 m/s 747 mmHg 89%
    09:00 -13°C° 0 mm 3 m/s 748 mmHg 89%
    10:00 -13°C° 0 mm 3 m/s 748 mmHg 89%
    11:00 -13°C° 0 mm 3 m/s 749 mmHg 88%
    12:00 -12°C° 0 mm 3 m/s 749 mmHg 88%
    13:00 -12°C° 0 mm 3 m/s 749 mmHg 87%
    14:00 -12°C° 0 mm 2 m/s 750 mmHg 90%
    15:00 -13°C° 0 mm 2 m/s 750 mmHg 92%
    16:00 -13°C° 0 mm 2 m/s 751 mmHg 94%
    17:00 -14°C° 0 mm 2 m/s 751 mmHg 95%
    18:00 -12°C° 0 mm 1 m/s 751 mmHg 95%
    19:00 -13°C° 0 mm 1 m/s 752 mmHg 96%
    20:00 -13°C° 0 mm 1 m/s 752 mmHg 96%
    21:00 -13°C° 0 mm 1 m/s 752 mmHg 96%
    22:00 -13°C° 0 mm 1 m/s 753 mmHg 96%
    23:00 -13°C° 0 mm 1 m/s 753 mmHg 96%

    20 Décembre, Jeudi

    Heure Température Précipitation Vent Pression Humidité
    00:00 -13°C° 0 mm 1 m/s 753 mmHg 96%
    01:00 -13°C° 0 mm 1 m/s 753 mmHg 96%
    02:00 -13°C° 0 mm 1 m/s 753 mmHg 96%
    03:00 -13°C° 0 mm 1 m/s 753 mmHg 96%
    04:00 -13°C° 0 mm 1 m/s 754 mmHg 96%
    05:00 -13°C° 0 mm 1 m/s 753 mmHg 96%
    06:00 -13°C° 0 mm 1 m/s 753 mmHg 96%
    07:00 -13°C° 0 mm 1 m/s 753 mmHg 96%
    08:00 -15°C° 0 mm 2 m/s 753 mmHg 95%
    09:00 -15°C° 0 mm 2 m/s 753 mmHg 94%
    10:00 -15°C° 0 mm 2 m/s 753 mmHg 94%
    11:00 -14°C° 0 mm 2 m/s 753 mmHg 91%
    12:00 -14°C° 0 mm 2 m/s 753 mmHg 89%
    13:00 -13°C° 0 mm 2 m/s 752 mmHg 87%
    14:00 -14°C° 0 mm 2 m/s 752 mmHg 89%
    15:00 -14°C° 0 mm 2 m/s 751 mmHg 92%
    16:00 -15°C° 0 mm 2 m/s 751 mmHg 94%
    17:00 -14°C° 0 mm 2 m/s 751 mmHg 94%
    18:00 -14°C° 0 mm 2 m/s 750 mmHg 94%
    19:00 -15°C° 0 mm 3 m/s 750 mmHg 94%
    20:00 -15°C° 0 mm 3 m/s 749 mmHg 94%
    21:00 -15°C° 0 mm 3 m/s 749 mmHg 93%
    22:00 -15°C° 0 mm 3 m/s 748 mmHg 92%
    23:00 -16°C° 0 mm 4 m/s 748 mmHg 91%

    21 Décembre, Vendredi

    Heure Température Précipitation Vent Pression Humidité
    00:00 -17°C° 0 mm 4 m/s 748 mmHg 89%
    01:00 -17°C° 0 mm 4 m/s 747 mmHg 88%
    02:00 -17°C° 0 mm 4 m/s 747 mmHg 87%
    03:00 -18°C° 0 mm 4 m/s 747 mmHg 87%
    04:00 -18°C° 0 mm 4 m/s 746 mmHg 87%
    05:00 -18°C° 0 mm 4 m/s 746 mmHg 88%
    06:00 -19°C° 0 mm 4 m/s 745 mmHg 88%
    07:00 -19°C° 0 mm 4 m/s 745 mmHg 89%
    08:00 -19°C° 0 mm 4 m/s 745 mmHg 88%
    09:00 -19°C° 0 mm 4 m/s 744 mmHg 88%
    10:00 -19°C° 0 mm 4 m/s 744 mmHg 87%
    11:00 -19°C° 0 mm 4 m/s 743 mmHg 86%
    12:00 -18°C° 0 mm 4 m/s 743 mmHg 84%
    13:00 -18°C° 0 mm 4 m/s 743 mmHg 83%
    14:00 -18°C° 0 mm 4 m/s 742 mmHg 85%
    15:00 -19°C° 0 mm 4 m/s 742 mmHg 86%
    16:00 -19°C° 0 mm 4 m/s 742 mmHg 88%
    17:00 -19°C° 0 mm 3 m/s 741 mmHg 88%
    18:00 -19°C° 0 mm 3 m/s 741 mmHg 88%
    19:00 -19°C° 0 mm 3 m/s 741 mmHg 88%
    20:00 -19°C° 0 mm 3 m/s 741 mmHg 88%
    21:00 -21°C° 0 mm 3 m/s 740 mmHg 88%
    22:00 -21°C° 0 mm 3 m/s 740 mmHg 88%
    23:00 -21°C° 0 mm 3 m/s 740 mmHg 88%

    22 Décembre, Samedi

    Heure Température Précipitation Vent Pression Humidité
    00:00 -21°C° 0 mm 3 m/s 740 mmHg 89%
    01:00 -19°C° 0 mm 2 m/s 740 mmHg 89%
    02:00 -19°C° 0 mm 2 m/s 740 mmHg 90%
    03:00 -19°C° 0 mm 2 m/s 740 mmHg 90%
    04:00 -19°C° 0 mm 2 m/s 740 mmHg 90%
    05:00 -19°C° 0.1 mm 2 m/s 740 mmHg 91%
    06:00 -19°C° 0.1 mm 3 m/s 740 mmHg 91%
    07:00 -19°C° 0.1 mm 3 m/s 741 mmHg 91%
    08:00 -21°C° 0.1 mm 3 m/s 741 mmHg 91%
    09:00 -22°C° 0.1 mm 4 m/s 742 mmHg 90%
    10:00 -23°C° 0.1 mm 4 m/s 742 mmHg 90%
    11:00 -24°C° 0.2 mm 4 m/s 742 mmHg 90%
    12:00 -25°C° 0.2 mm 4 m/s 743 mmHg 89%
    13:00 -26°C° 0.2 mm 4 m/s 743 mmHg 89%
    14:00 -27°C° 0.1 mm 4 m/s 744 mmHg 90%
    15:00 -29°C° 0.1 mm 4 m/s 744 mmHg 90%
    16:00 -30°C° 0.1 mm 4 m/s 745 mmHg 91%
    17:00 -30°C° 0.1 mm 4 m/s 745 mmHg 91%
    18:00 -31°C° 0.1 mm 4 m/s 746 mmHg 91%
    19:00 -32°C° 0.1 mm 4 m/s 746 mmHg 91%
    20:00 -32°C° 0.1 mm 4 m/s 746 mmHg 91%
    21:00 -33°C° 0.1 mm 4 m/s 747 mmHg 91%
    22:00 -33°C° 0.1 mm 4 m/s 747 mmHg 91%
    23:00 -34°C° 0 mm 4 m/s 748 mmHg 91%
    Voir plus